COSMOS 2251 DEB

Satellite information

Favourite Embed

Satellite Type and Status

DEBRISIN ORBIT

Key statistics

Satellite COSMOS 2251 DEB at a glance.

Uptime

11653

Days in orbit

Revolutions

≈ 14.4

Per day

Orbit

LEO

Low Earth Orbit

Inclination

73.9

Latest

Satellite identification and parameters

Extended collection of information and parameters for COSMOS 2251 DEB.

Object identification

Identified? True

Debris? True

Object name: COSMOS 2251 DEB

International designator: 1993-036BJV

Object number (NORAD): 37305

Object ID (CCSDS): 37305

Country: COMMONWEALTH OF INDEPENDENT STATES (CIS)

Current information (Y/N): Y

RCS size: SMALL

Orbital parameters

Period: 100.331 minutes

Inclination: 73.8715 deg

SMA: 7152.388 km

Apoapsis: 808.384 km

Periapsis: 740.123 km

RAAN: 332.5124 deg

Eccentricy: 0.0047719

Argument of periapsis: 336.2084 deg

Mean anomaly: 23.6861 deg

Mean motion: 14.35245322 rev/day

Mean motion (dot): 0.00001608 rev/day2

B* drag term: 0.00056414 1/REarth

Two-line elements (TLE)

Creation date: May 10, 2025, 5:27 p.m.

Reference frame: TEME

Reference center: EARTH

Epoch: May 9, 2025, 8:11 p.m. UTC

TLE line 0: 0 COSMOS 2251 DEB

TLE line 1: 1 37305U 93036BJV 25129.84106568 .00001608 00000-0 56414-3 0 9994

TLE line 2: 2 37305 73.8715 332.5124 0047719 336.2084 23.6861 14.35245322637547

Live tracking on map

Real-time ground track for satellite COSMOS 2251 DEB.

In-orbit conjunctions

A list of the most updated potential collisions computed for object COSMOS 2251 DEB.

Target Orbit TCA Probability of collision Miss distance Type
SL-16 R/B SSO 2024-09-22 03:36:01 0.0004238822 260.0 (m) ROCKET BODY
CZ-4C R/B SSO 2024-08-27 21:48:22 0.0001102637 125.0 (m) ROCKET BODY

Associated space launch

Military communications satellite. Destroyed in a collision with Iridium 33.

COSMOS 2251 DEB was lifted into orbit during the mission ‘Kosmos-3M | Strela-2M 51’, on board a Kosmos-3M space rocket.

The launch took place on June 16, 1993, 4:17 a.m. from 132/1 (132L).

For more information about the launch, click the button.

Launch to space Kosmos-3M | Strela-2M 51
Kosmos-3M | Strela-2M 51

Agency: N/A

Status: Launch Successful

Launch date: June 16, 1993, 4:17 a.m. UTC

Rocket: Kosmos-3M

Launch pad: 132/1 (132L)

Location: Plesetsk Cosmodrome, Russian Federation

...

Latest news about this satellite

There are no fresh news available about this satellite. Check back as we update our databases every day.


Newsletter sign-up

Weekly statistics, charts and insights to help you stay on top of the space industry.